This is the latest recevied weather packets stored in our database for station/object WE8L. If no packets are shown the sender has not sent any weather packets the latest 10 day(s).
| Time | Temp. | Humidity | Pressure | Rain* | Wind** | Luminosity | Snow |
|---|---|---|---|---|---|---|---|
| 1777565328 | 12.22° C | 58% | 1019.3 hPa | 0 mm | - | 87 W/m² | - |
| 1777565024 | 11.67° C | 62% | 1019.5 hPa | 0 mm | - | 141 W/m² | - |
| 1777564720 | 11.67° C | 61% | 1019.4 hPa | 0 mm | - | 139 W/m² | - |
| 1777564415 | 12.22° C | 61% | 1019.5 hPa | 0 mm | - | 120 W/m² | - |
| 1777564111 | 11.67° C | 62% | 1019.2 hPa | 0 mm | - | 309 W/m² | - |
| 1777563807 | 11.67° C | 62% | 1019.4 hPa | 0 mm | - | 128 W/m² | - |
| 1777563504 | 11.67° C | 64% | 1019.4 hPa | 0 mm | - | 129 W/m² | - |
| 1777563203 | 11.11° C | 66% | 1019.4 hPa | 0 mm | - | 271 W/m² | - |
| 1777562900 | 10.56° C | 68% | 1019.5 hPa | 0 mm | - | 83 W/m² | - |
| 1777562596 | 10.56° C | 68% | 1019.6 hPa | 0 mm | - | 53 W/m² | - |
| 1777562295 | 10° C | 71% | 1019.6 hPa | 0 mm | - | 61 W/m² | - |
| 1777561992 | 9.44° C | 70% | 1019.7 hPa | 0 mm | - | 60 W/m² | - |
| 1777561689 | 10° C | 70% | 1019.6 hPa | 0 mm | - | 118 W/m² | - |
| 1777561384 | 10.56° C | 69% | 1019.5 hPa | 0 mm | - | 75 W/m² | - |
| 1777561079 | 10.56° C | 68% | 1019.6 hPa | 0 mm | - | 142 W/m² | - |
| 1777560775 | 10° C | 67% | 1019.5 hPa | 0 mm | - | 576 W/m² | - |
| 1777560473 | 10° C | 72% | 1019.6 hPa | 0 mm | - | 573 W/m² | - |
| 1777560170 | 8.89° C | 75% | 1019.5 hPa | 0 mm | - | 556 W/m² | - |
| 1777559867 | 8.89° C | 74% | 1019.4 hPa | 0 mm | - | 64 W/m² | - |
| 1777559562 | 8.89° C | 76% | 1019.5 hPa | 0 mm | - | 210 W/m² | - |
| 1777559260 | 8.33° C | 77% | 1019.6 hPa | 0 mm | - | 116 W/m² | - |
| 1777558955 | 7.78° C | 77% | 1019.5 hPa | 0 mm | - | 80 W/m² | - |
| 1777558652 | 7.78° C | 77% | 1019.7 hPa | 0 mm | - | 72 W/m² | - |
| 1777558347 | 7.78° C | 77% | 1019.7 hPa | 0 mm | - | 70 W/m² | - |
| 1777558044 | 7.78° C | 78% | 1019.7 hPa | 0 mm | - | 75 W/m² | - |
* Rain latest hour (hover to see other rain measurements)
** Current wind speed in m/s (hover to see current wind gust speed)